Weather Roundup
Issued by NWS Chicago, IL

Home | Current Version | Previous Version | Graphics & Text | Print | Product List | Glossary On
Versions: 1 2 3 4 5 6 7 8 9 10 11 12 13 14 15 16 17 18 19 20 21 22 23 24 25 26 27 28 29 30 31 32 33 34 35 36 37 38 39 40 41 42 43 44 45 46 47 48 49 50
567
NZUS59 KLOT 201608
HRRLOT

CHICAGO AREA WEATHER ROUNDUP
NATIONAL WEATHER SERVICE CHICAGO/ROMEOVILLE IL
1000 AM CST TUE FEB 20 2018

NOTE: "FAIR" INDICATES FEW OR NO CLOUDS BELOW 12,000 FEET WITH NO
SIGNIFICANT WEATHER AND/OR OBSTRUCTIONS TO VISIBILITY.

* THESE STATIONS ARE NOT UNDER NWS QUALITY CONTROL. THEY ALSO MAY NOT
  REPORT WEATHER SUCH AS PRECIPITATION OR FOG.

ILZ005-006-012>014-019>023-201700-
NORTHEAST ILLINOIS

CITY           SKY/WX    TMP DP  RH WIND       PRES   REMARKS
OHARE          CLOUDY    63  58  83 SW20G25   29.84S
MIDWAY         CLOUDY    63  60  90 S14G22    29.85F
AURORA         CLOUDY    59  58  96 S10       29.84F
LANSING*       CLOUDY    61  60  97 S18       29.89S
JOLIET*        CLOUDY    64  61  88 S14G22    29.86F
WAUKEGAN       CLOUDY    53  53 100 CALM      29.84S FOG
DUPAGE AIRPORT LGT RAIN  59  59 100 S10       29.83F
WHEELING       PTSUNNY   62  60  93 S12       29.85F
KANKAKEE*      PTSUNNY   61  61  98 S16G24    29.91S
MORRIS*        PTSUNNY   62  58  87 S15       29.85R
LEWIS AIRPORT* CLOUDY    61  58  90 SW18G26   29.85F
NORTHERLY ISL    N/A     62  57  83 S15         N/A
$$

WIZ051-052-058>065-066-070>072-201700-
SOUTHEAST WISCONSIN

CITY           SKY/WX    TMP DP  RH WIND       PRES   REMARKS
MILWAUKEE      FOG       42  41  96 SE7       29.84S VSB 1
KENOSHA*       LGT RAIN  50  48  93 CALM      29.84F FOG
RACINE*        LGT RAIN  41  40  96 SE3       29.86F FOG
BURLINGTON     FOG       41  40  97 CALM      29.83F VSB 1/2
WAUKESHA       CLOUDY    41  41 100 S3        29.83F
WEST BEND      CLOUDY    41  41 100 S3        29.82R
$$

INZ001>003-010>013-019-020-201700-
NORTHWEST INDIANA

CITY           SKY/WX    TMP DP  RH WIND       PRES   REMARKS
GARY*          CLOUDY    64  61  88 S12G26    29.89S
MICHIGAN CITY* NOT AVBL
RENSSELAER*    NOT AVBL
VALPARAISO     LGT RAIN  64  61  90 S15G24    29.93R
$$

LMZ740>746-201700-
SOUTHERN LAKE MICHIGAN

STATION/POSITION TIME  SKY/WX   TEMP WIND        PRES    VSBY
                                AIR  DIR/SP/G
                 (UTC)          (F)  (DEG/KT/KT) (MB)    (MI)
HARRISON CRIB    1540            62  210/ 22/ 23   N/A
BURNHAM HARBOR   1600            62  200/ 14/ 17   N/A
CALUMET HARBOR   1542            62  190/ 14/ 22 1011.1R
BURNS HARBOR     1540            61  200/ 20/ 26 1012.9R
MICHIGAN CITY    1540            62  180/ 21/ 23   N/A
$$

ABBREVIATIONS USED IN REMARKS
   TC - TEMPERATURE IN CELSIUS
  WCI - WIND CHILL INDEX
   HX - HEAT INDEX
  VSB - VISIBILITY
$$




USA.gov is the U.S. government's official web portal to all federal, state and local government web resources and services.